Weather History for KEWN - November, 2013

Change the Weather History Date:

Wednesday, November 27, 2013

  Actual Average Record
Temperature  
Mean Temperature 54 °F 52 °F  
Max Temperature 72 °F 63 °F 84 °F (1973)
Min Temperature 36 °F 41 °F 25 °F (2008)
Degree Days  
Heating Degree Days 11 13  
Month to date heating degree days 278 268  
Since 1 July heating degree days 354 385  
Cooling Degree Days 0 0  
Month to date cooling degree days 16 14  
Year to date cooling degree days 2006 1899  
Growing Degree Days 4 (Base 50)    
Moisture  
Dew Point 55 °F    
Average Humidity 84    
Maximum Humidity 97    
Minimum Humidity 70    
Precipitation  
Precipitation 1.34 in 0.12 in 1.83 in (1992)
Month to date precipitation 4.46 3.04  
Year to date precipitation 40.29 48.99  
Snow  
Snow 0.00 in - - ()
Month to date snowfall T  
Since 1 July snowfall T  
Snow Depth 0.00 in    
Sea Level Pressure  
Sea Level Pressure 29.65 in    
Wind  
Wind Speed 12 mph (WSW)    
Max Wind Speed 24 mph    
Max Gust Speed 33 mph    
Visibility 7 miles    
Events Fog , Rain , Thunderstorm    
T = Trace of Precipitation, MM = Missing Value Source: NWS Daily Summary

Daily Weather History Graph

Daily Weather History Graph

Search for Another Location

Airport or City:

Trip Planner

Search our weather history database for the weather conditions in past years. The results will help you decide how hot, cold, wet, or windy it might be!

Date:

Astronomy

Nov. 27, 2013 Rise Set
Actual Time 6:54 AM EST 4:57 PM EST
Civil Twilight 6:26 AM EST 5:24 PM EST
Nautical Twilight 5:55 AM EST 5:55 PM EST
Astronomical Twilight 5:25 AM EST 6:26 PM EST
Moon 1:06 AM EST (11/27) 1:22 PM EST (11/27)
Length of Visible Light 10h 57m
Length of Day
10h 02m
Waning Crescent, 32% of the Moon is Illuminated
Nov 27
Waning Crescent
Dec 2
New
Dec 9
First Quarter
Dec 17
Full
Dec 25
Last Quarter

Hourly Weather History & Observations

Time (EST) Temp. Windchill Dew Point Humidity Pressure Visibility Wind Dir Wind Speed Gust Speed Precip Events Conditions
12:30 AM 71.6 °F - 68.0 °F 88% 29.65 in 4.0 mi South 19.6 mph 24.2 mph 0.06 in Rain Rain
12:54 AM 71.1 °F - 68.0 °F 90% 29.65 in 9.0 mi SSW 11.5 mph 21.9 mph 0.06 in   Overcast
1:20 AM 71.6 °F - 68.0 °F 88% 29.62 in 10.0 mi SSW 15.0 mph 25.3 mph 0.00 in Thunderstorm Overcast
1:40 AM 71.6 °F - 69.8 °F 94% 29.61 in 1.8 mi South 23.0 mph 33.4 mph 0.16 in Rain , Thunderstorm Heavy Rain
1:54 AM 70.0 °F - 66.9 °F 90% 29.62 in 4.0 mi SW 12.7 mph 23.0 mph 0.22 in Rain Rain
2:03 AM 69.8 °F - 66.2 °F 88% 29.62 in 1.8 mi SW 9.2 mph - 0.12 in Rain Heavy Rain
2:20 AM 69.8 °F - 66.2 °F 88% 29.62 in 4.0 mi SW 12.7 mph 17.3 mph 0.33 in Rain Rain
2:37 AM 69.8 °F - 66.2 °F 88% 29.61 in 6.0 mi SSW 10.4 mph 23.0 mph 0.38 in Rain Rain
2:54 AM 69.1 °F - 66.0 °F 90% 29.60 in 7.0 mi South 11.5 mph - 0.39 in Rain Light Rain
3:30 AM 69.8 °F - 66.2 °F 88% 29.57 in 10.0 mi SSW 13.8 mph 21.9 mph 0.01 in Rain Light Rain
3:54 AM 70.0 °F - 68.0 °F 93% 29.56 in 7.0 mi South 11.5 mph 24.2 mph 0.03 in Rain Light Rain
4:02 AM 69.8 °F - 68.0 °F 94% 29.55 in 5.0 mi South 12.7 mph - 0.01 in Rain Rain
4:11 AM 71.6 °F - 68.0 °F 88% 29.55 in 6.0 mi South 12.7 mph 21.9 mph 0.02 in Rain Rain
4:42 AM 71.6 °F - 66.2 °F 83% 29.54 in 10.0 mi South 15.0 mph 24.2 mph 0.04 in   Overcast
4:50 AM 71.6 °F - 66.2 °F 83% 29.53 in 10.0 mi SSW 12.7 mph 24.2 mph 0.04 in   Overcast
4:54 AM 71.1 °F - 66.9 °F 87% 29.54 in 10.0 mi SSW 13.8 mph 21.9 mph 0.04 in   Overcast
5:28 AM 69.8 °F - 66.2 °F 88% 29.53 in 9.0 mi South 13.8 mph 21.9 mph 0.01 in Rain Light Rain
5:35 AM 71.6 °F - 66.2 °F 83% 29.53 in 10.0 mi South 12.7 mph 21.9 mph 0.01 in Rain Light Rain
5:42 AM 69.8 °F - 66.2 °F 88% 29.52 in 10.0 mi SSW 11.5 mph - 0.01 in   Overcast
5:54 AM 71.1 °F - 66.9 °F 87% 29.52 in 9.0 mi South 11.5 mph 20.7 mph 0.01 in Rain Light Rain
6:12 AM 69.8 °F - 68.0 °F 94% 29.51 in 2.5 mi South 12.7 mph 23.0 mph 0.10 in Rain Heavy Rain
6:15 AM 69.8 °F - 68.0 °F 94% 29.51 in 1.8 mi South 12.7 mph 21.9 mph 0.16 in Rain Heavy Rain
6:20 AM 69.8 °F - 68.0 °F 94% 29.50 in 2.0 mi SSW 10.4 mph 21.9 mph 0.18 in Rain Heavy Rain
6:31 AM 69.8 °F - 66.2 °F 88% 29.50 in 4.0 mi South 13.8 mph 20.7 mph 0.21 in Rain Light Rain
6:47 AM 69.8 °F - 66.2 °F 88% 29.49 in 10.0 mi South 11.5 mph - 0.21 in Rain Light Rain
6:54 AM 70.0 °F - 66.9 °F 90% 29.49 in 10.0 mi SSW 12.7 mph 20.7 mph 0.21 in   Overcast
7:51 AM 71.6 °F - 66.2 °F 83% 29.47 in 10.0 mi South 9.2 mph - 0.00 in   Mostly Cloudy
7:54 AM 70.0 °F - 66.9 °F 90% 29.47 in 10.0 mi South 6.9 mph - 0.00 in   Overcast
8:18 AM 69.8 °F - 66.2 °F 88% 29.45 in 8.0 mi South 6.9 mph - 0.01 in Rain Light Rain
8:27 AM 69.8 °F - 66.2 °F 88% 29.45 in 1.5 mi SSW 8.1 mph - 0.10 in Rain Heavy Rain
8:34 AM 69.8 °F - 66.2 °F 88% 29.45 in 0.5 mi SSW 9.2 mph - 0.21 in Fog , Rain Heavy Rain
8:38 AM 69.8 °F - 66.2 °F 88% 29.45 in 1.0 mi SSW 16.1 mph 21.9 mph 0.22 in Rain Rain
8:43 AM 69.8 °F - 66.2 °F 88% 29.45 in 3.0 mi SSW 12.7 mph 21.9 mph 0.23 in Rain Rain
8:54 AM 70.0 °F - 66.9 °F 90% 29.44 in 10.0 mi SW 10.4 mph 21.9 mph 0.23 in   Overcast
9:23 AM 71.6 °F - 66.2 °F 83% 29.44 in 10.0 mi SW 9.2 mph - N/A   Overcast
9:54 AM 64.9 °F - 62.1 °F 90% 29.47 in 10.0 mi NW 9.2 mph 19.6 mph 0.00 in Rain Light Rain
10:54 AM 57.0 °F - 54.0 °F 89% 29.47 in 10.0 mi NW 11.5 mph - 0.04 in Rain Light Rain
11:26 AM 55.4 °F - 51.8 °F 88% 29.50 in 2.0 mi WNW 9.2 mph - 0.04 in Rain Light Rain
11:35 AM 55.4 °F - 51.8 °F 88% 29.51 in 10.0 mi NW 11.5 mph - 0.04 in Rain Light Rain
11:54 AM 54.0 °F - 51.1 °F 90% 29.50 in 5.0 mi NW 8.1 mph - 0.05 in Rain Heavy Rain
12:54 PM 53.1 °F - 50.0 °F 89% 29.52 in 9.0 mi NNW 10.4 mph - 0.02 in Rain Light Rain
1:29 PM 51.8 °F - 48.2 °F 88% 29.56 in 2.5 mi NW 10.4 mph - 0.01 in Rain Light Rain
1:39 PM 51.8 °F - 48.2 °F 88% 29.57 in 2.5 mi NW 15.0 mph 20.7 mph 0.01 in Rain Light Rain
1:44 PM 51.8 °F - 48.2 °F 88% 29.58 in 3.0 mi NNW 13.8 mph 20.7 mph 0.01 in Rain Light Rain
1:54 PM 50.0 °F - 46.9 °F 89% 29.60 in 7.0 mi NW 16.1 mph 23.0 mph 0.01 in Rain Light Rain
2:46 PM 50.0 °F - 46.4 °F 87% 29.63 in 10.0 mi NNW 8.1 mph 20.7 mph 0.00 in   Overcast
2:54 PM 48.9 °F - 45.0 °F 86% 29.64 in 10.0 mi NNW 12.7 mph - 0.00 in   Overcast
3:13 PM 48.2 °F - 44.6 °F 87% 29.67 in 2.5 mi NNW 12.7 mph 18.4 mph 0.00 in Rain Light Rain
3:36 PM 46.4 °F 40.1 °F 44.6 °F 93% 29.70 in 1.8 mi WNW 15.0 mph 23.0 mph 0.02 in Rain Light Rain
3:39 PM 46.4 °F 40.7 °F 42.8 °F 87% 29.70 in 2.0 mi WNW 12.7 mph 23.0 mph 0.02 in Rain Light Rain
3:54 PM 45.0 °F 38.9 °F 42.1 °F 90% 29.73 in 2.0 mi WNW 12.7 mph 23.0 mph 0.02 in Rain Light Rain
4:31 PM 44.6 °F 37.8 °F 41.0 °F 87% 29.76 in 4.0 mi WNW 15.0 mph 23.0 mph 0.01 in Rain Light Rain
4:54 PM 44.1 °F 38.1 °F 39.9 °F 85% 29.78 in 6.0 mi NW 11.5 mph 21.9 mph 0.01 in   Overcast
5:32 PM 44.6 °F 38.4 °F 39.2 °F 81% 29.83 in 10.0 mi NW 12.7 mph 18.4 mph N/A   Overcast
5:54 PM 43.0 °F 35.7 °F 39.9 °F 89% 29.86 in 9.0 mi NW 15.0 mph 25.3 mph N/A   Overcast
6:45 PM 42.8 °F 37.5 °F 39.2 °F 87% 29.91 in 6.0 mi WNW 9.2 mph - 0.00 in Rain Light Rain
6:54 PM 42.1 °F 34.9 °F 39.0 °F 89% 29.92 in 7.0 mi NW 13.8 mph 23.0 mph 0.00 in Rain Light Rain
7:02 PM 42.8 °F 35.8 °F 37.4 °F 81% 29.93 in 10.0 mi NW 13.8 mph 24.2 mph N/A   Overcast
7:47 PM 41.0 °F 33.9 °F 37.4 °F 87% 29.96 in 10.0 mi NW 12.7 mph 19.6 mph 0.00 in Rain Light Rain
7:54 PM 41.0 °F 33.5 °F 37.0 °F 86% 29.96 in 10.0 mi WNW 13.8 mph 17.3 mph 0.00 in Rain Light Rain
8:01 PM 41.0 °F 34.7 °F 37.4 °F 87% 29.97 in 10.0 mi WNW 10.4 mph 19.6 mph 0.00 in Rain Light Rain
8:15 PM 39.2 °F 30.5 °F 35.6 °F 87% 29.99 in 10.0 mi NW 16.1 mph 24.2 mph 0.00 in Rain Light Rain
8:32 PM 39.2 °F 31.2 °F 35.6 °F 87% 29.99 in 10.0 mi NW 13.8 mph - 0.00 in   Overcast
8:54 PM 39.9 °F 33.4 °F 34.0 °F 79% 30.01 in 10.0 mi WNW 10.4 mph - 0.00 in   Overcast
9:47 PM 39.2 °F 31.2 °F 33.8 °F 81% 30.06 in 10.0 mi NW 13.8 mph 21.9 mph N/A   Overcast
9:54 PM 39.9 °F 32.9 °F 33.1 °F 77% 30.06 in 10.0 mi WNW 11.5 mph 19.6 mph N/A   Overcast
10:54 PM 37.9 °F 32.7 °F 28.9 °F 70% 30.10 in 10.0 mi WNW 6.9 mph - N/A   Overcast
11:54 PM 36.0 °F 29.0 °F 26.1 °F 67% 30.14 in 10.0 mi WNW 9.2 mph - N/A   Clear